Location: Unspecified
(0.0000°N, 0.0000°E)
Time: 12:31:59
(UTC+00:00)

COSMOS 2508 - Pass Details

Date: 07 October 2020
Orbit: 1484 x 1504 km, 82.5° (Epoch: 26 October)

Event Time Altitude Azimuth Distance (km) Brightness Sun altitude
Rises 17:55:25 0° 178° (S) 4,626 ? -1.9°
Reaches altitude 10° 17:58:19 10° 175° (S) 3,647 ? -2.7°
Maximum altitude 18:07:02 69° 93° (E) 1,592 ? -4.8°
Drops below altitude 10° 18:15:45 10° 12° (NNE) 3,648 ? -7.0°
Sets 18:18:39 0° 9° (N) 4,627 ? -7.7°
